TimeAKDT,TemperatureF,Dew PointF,Humidity,Sea Level PressureIn,VisibilityMPH,Wind Direction,Wind SpeedMPH,Gust SpeedMPH,PrecipitationIn,Events,Conditions,WindDirDegrees,DateUTC
12:53 AM,42.1,37.9,85,29.73,6.0,SE,25.3,35.7,0.09,Rain,Rain,130,2013-04-09 08:53:00
1:53 AM,42.1,37.9,85,29.66,5.0,SE,28.8,41.4,0.18,Rain,Heavy Rain,130,2013-04-09 09:53:00
2:24 AM,41.0,37.4,87,29.66,3.0,ESE,19.6,31.1,0.16,,Overcast,120,2013-04-09 10:24:00
2:53 AM,41.0,39.0,93,29.60,5.0,ESE,27.6,42.6,0.26,Rain,Rain,120,2013-04-09 10:53:00
3:08 AM,42.8,39.2,87,29.60,4.0,SE,31.1,41.4,0.06,Rain,Heavy Rain,130,2013-04-09 11:08:00
3:35 AM,42.8,39.2,87,29.58,6.0,ESE,28.8,40.3,0.16,Rain,Light Rain,120,2013-04-09 11:35:00
3:53 AM,43.0,39.0,86,29.60,10.0,SE,24.2,42.6,0.18,Rain,Light Rain,140,2013-04-09 11:53:00
4:53 AM,44.1,39.0,82,29.57,10.0,SE,29.9,50.6,0.00,Rain,Light Rain,140,2013-04-09 12:53:00
5:53 AM,45.0,39.0,80,29.56,9.0,SSE,32.2,50.6,0.00,Rain,Light Rain,150,2013-04-09 13:53:00
6:23 AM,44.6,39.2,81,29.55,2.5,SE,26.5,49.5,0.00,,Overcast,140,2013-04-09 14:23:00
6:31 AM,44.6,41.0,87,29.54,3.0,SSE,31.1,49.5,0.01,,Overcast,150,2013-04-09 14:31:00
6:40 AM,44.6,41.0,87,29.53,2.5,SE,32.2,50.6,0.01,,Overcast,140,2013-04-09 14:40:00
6:53 AM,44.1,41.0,89,29.52,3.0,SE,35.7,54.1,0.01,,Overcast,140,2013-04-09 14:53:00
7:53 AM,45.0,42.1,90,29.51,2.5,SSE,26.5,54.1,0.01,,Overcast,150,2013-04-09 15:53:00
8:15 AM,44.6,42.8,93,29.51,1.8,SE,27.6,41.4,0.03,,Overcast,140,2013-04-09 16:15:00
8:28 AM,44.6,42.8,93,29.51,2.0,SSE,32.2,44.9,0.05,,Overcast,150,2013-04-09 16:28:00
8:53 AM,45.0,43.0,93,29.52,2.0,SE,25.3,46.0,0.06,,Overcast,140,2013-04-09 16:53:00
9:02 AM,44.6,42.8,93,29.51,1.2,SSE,18.4,42.6,0.03,Rain,Rain,150,2013-04-09 17:02:00
9:32 AM,46.4,44.6,93,29.52,2.5,SSE,21.9,43.7,0.09,Rain,Light Rain,150,2013-04-09 17:32:00
9:53 AM,46.0,45.0,96,29.53,5.0,SSE,21.9,38.0,0.11,Rain,Light Rain,160,2013-04-09 17:53:00
10:14 AM,46.4,44.6,93,29.54,2.0,SSE,20.7,36.8,0.01,Rain,Light Rain,160,2013-04-09 18:14:00
10:53 AM,46.9,45.0,93,29.58,3.0,South,17.3,35.7,0.04,Rain,Light Rain,170,2013-04-09 18:53:00
11:05 AM,46.4,44.6,93,29.60,2.5,South,18.4,34.5,0.01,Rain,Light Rain,180,2013-04-09 19:05:00
11:10 AM,46.4,44.6,93,29.60,2.5,South,17.3,29.9,0.02,Rain,Light Rain,180,2013-04-09 19:10:00
11:33 AM,46.4,44.6,93,29.63,5.0,South,12.7,25.3,0.07,Rain,Light Rain,190,2013-04-09 19:33:00
11:41 AM,44.6,44.6,100,29.64,8.0,SSW,12.7,24.2,0.07,Rain,Light Rain,200,2013-04-09 19:41:00
11:53 AM,45.0,43.0,93,29.65,10.0,SSW,9.2,23.0,0.08,Rain,Light Rain,200,2013-04-09 19:53:00
12:02 PM,44.6,42.8,93,29.66,10.0,SSW,12.7,23.0,0.00,Rain,Light Rain,210,2013-04-09 20:02:00
12:09 PM,44.6,42.8,93,29.67,10.0,SSW,10.4,23.0,0.00,Rain,Light Rain,210,2013-04-09 20:09:00
12:25 PM,44.6,42.8,93,29.69,10.0,SSW,13.8,24.2,0.00,,Overcast,200,2013-04-09 20:25:00
12:50 PM,44.6,42.8,93,29.70,10.0,SSW,9.2,25.3,0.00,,Overcast,200,2013-04-09 20:50:00
12:53 PM,45.0,42.1,90,29.71,10.0,SSW,13.8,25.3,0.00,,Overcast,200,2013-04-09 20:53:00
1:53 PM,45.0,42.1,90,29.76,10.0,South,11.5,19.6,0.01,Rain,Light Rain,190,2013-04-09 21:53:00
2:53 PM,45.0,42.1,90,29.78,10.0,SSW,8.1,-,0.02,Rain,Light Rain,200,2013-04-09 22:53:00
3:15 PM,44.6,42.8,93,29.77,10.0,South,9.2,-,0.00,Rain,Light Rain,190,2013-04-09 23:15:00
3:36 PM,44.6,42.8,93,29.78,10.0,Variable,6.9,-,0.01,Rain,Light Rain,0,2013-04-09 23:36:00
3:53 PM,45.0,43.0,93,29.78,10.0,South,6.9,-,0.01,Rain,Light Rain,190,2013-04-09 23:53:00
4:02 PM,44.6,42.8,93,29.78,10.0,South,6.9,-,0.00,Rain,Light Rain,190,2013-04-10 00:02:00
4:53 PM,44.1,42.1,93,29.78,10.0,Variable,4.6,-,0.02,Rain,Light Rain,0,2013-04-10 00:53:00
5:15 PM,44.6,42.8,93,29.78,10.0,South,5.8,-,0.00,,Overcast,190,2013-04-10 01:15:00
5:33 PM,44.6,42.8,93,29.79,8.0,SSW,4.6,-,0.00,,Overcast,200,2013-04-10 01:33:00
5:53 PM,44.1,43.0,96,29.79,10.0,Variable,4.6,-,0.00,,Overcast,0,2013-04-10 01:53:00
6:24 PM,44.6,42.8,93,29.79,10.0,South,3.5,-,0.00,,Overcast,180,2013-04-10 02:24:00
6:53 PM,44.1,41.0,89,29.80,10.0,South,3.5,-,0.00,,Overcast,180,2013-04-10 02:53:00
7:53 PM,43.0,41.0,93,29.81,10.0,South,4.6,-,N/A,,Overcast,190,2013-04-10 03:53:00
8:53 PM,43.0,39.9,89,29.82,10.0,Calm,Calm,-,N/A,,Overcast,0,2013-04-10 04:53:00
9:53 PM,42.1,41.0,96,29.83,10.0,Calm,Calm,-,N/A,,Overcast,0,2013-04-10 05:53:00
10:53 PM,42.1,39.9,92,29.84,10.0,Calm,Calm,-,N/A,,Overcast,0,2013-04-10 06:53:00
11:53 PM,41.0,37.9,89,29.84,10.0,Calm,Calm,-,N/A,,Overcast,0,2013-04-10 07:53:00